Regional Weather Roundup
Issued by NWS

Home | Current Version | Previous Version | Text Only | Print | Product List | Glossary On
Versions: 1 2 3 4 5 6 7 8 9 10 11 12 13 14 15 16 17 18 19 20 21 22 23 24 25 26 27 28 29 30 31 32 33 34 35 36 37 38 39 40 41 42 43 44 45 46 47 48 49 50
000
ASUS43 KLSX 292359
RWRMO

WEATHER SUMMARY FOR MISSOURI
NATIONAL WEATHER SERVICE SPRINGFIELD MO
700 PM CDT WED OCT 29 2014

NOTE: "FAIR" INDICATES FEW OR NO CLOUDS BELOW 12,000 FEET WITH NO
       SIGNIFICANT WEATHER AND/OR OBSTRUCTIONS TO VISIBILITY.
       CURRENT SKY AND/OR WEATHER CONDITIONS ARE NOT AVAILABLE FOR
       CHILLICOTHE AND FARMINGTON.

MOZ001>031-035>038-043-044-053-054-300100-
...NORTHERN AND WESTERN MISSOURI...

CITY           SKY/WX    TMP DP  RH WIND       PRES   REMARKS
KANSAS CTY INT CLEAR     54  32  43 S3        30.13S
6HR MIN TEMP:  52; 6HR MAX TEMP:  61;

KANSAS C DTWN  CLEAR     57  30  35 CALM      30.13S
6HR MIN TEMP:  57; 6HR MAX TEMP:  63;

LEE`S SUMMIT   CLEAR     57  30  35 SE3       30.14S
6HR MIN TEMP:  56; 6HR MAX TEMP:  62;

ST JOSEPH      CLEAR     51  35  54 SE3       30.13S
6HR MIN TEMP:  51; 6HR MAX TEMP:  61;

KIRKSVILLE     CLEAR     46  34  62 CALM      30.15S
6HR MIN TEMP:  46; 6HR MAX TEMP:  56;


$$
MOZ066>068-077>081-088>096-101>105-300100-
...SOUTHWEST MISSOURI...

CITY           SKY/WX    TMP DP  RH WIND       PRES   REMARKS
SPRINGFIELD    CLEAR     57  36  45 CALM      30.15S
6HR MIN TEMP:  55; 6HR MAX TEMP:  64;

JOPLIN         CLEAR     54  40  59 VRB5      30.15S
6HR MIN TEMP:  54; 6HR MAX TEMP:  66;


$$
MOZ032>034-039>042-045>050-055>058-069>072-300100-
...CENTRAL MISSOURI...

CITY           SKY/WX    TMP DP  RH WIND       PRES   REMARKS
COLUMBIA       CLEAR     51  34  52 CALM      30.16R
6HR MIN TEMP:  50; 6HR MAX TEMP:  59;

JEFFERSON CITY CLEAR     51  33  50 CALM      30.16R
6HR MIN TEMP:  51; 6HR MAX TEMP:  60;

ROLLA          CLEAR     46  32  58 CALM      30.14S
6HR MIN TEMP:  46; 6HR MAX TEMP:  58;

SEDALIA        CLEAR     55  31  39 CALM      30.16S
6HR MIN TEMP:  55; 6HR MAX TEMP:  61;

OSAGE BEACH    CLEAR     52  30  43 N3        30.15F

$$
MOZ051-052-059>065-300100-
...EAST CENTRAL MISSOURI...

CITY           SKY/WX    TMP DP  RH WIND       PRES   REMARKS
ST LOUIS INTL  CLEAR     53  36  52 NW3       30.16S
6HR MIN TEMP:  53; 6HR MAX TEMP:  59;

SPIRIT OF STL  CLEAR     47  38  71 CALM      30.15S
6HR MIN TEMP:  46; 6HR MAX TEMP:  58;

ST CHARLES     CLEAR     51  37  58 NW5       30.16R
6HR MIN TEMP:  51; 6HR MAX TEMP:  58;


$$
MOZ072>076-082>087-097>100-106>115-300100-
...SOUTH CENTRAL AND SOUTHEAST MISSOURI...

CITY           SKY/WX    TMP DP  RH WIND       PRES   REMARKS
CAPE GIRARDEAU CLEAR     50  37  61 N3        30.14R
6HR MIN TEMP:  50; 6HR MAX TEMP:  65;

FARMINGTON     CLEAR     54  28  37 NW5       30.17R
6HR MIN TEMP:  52; 6HR MAX TEMP:  61;

POPLAR BLUFF   CLEAR     55  29  36 NW5       30.13R
6HR MIN TEMP:  55; 6HR MAX TEMP:  69;

WEST PLAINS    CLEAR     53  33  46 W3        30.16R
6HR MIN TEMP:  52; 6HR MAX TEMP:  66;


$$



USA.gov is the U.S. government's official web portal to all federal, state and local government web resources and services.